COSMOS 2251 DEB, 35837

Orbit data source: Space-Track

COSMOS 2251 DEB, 35837 is space debris in LEO originally from a launch on Wed, 16 Jun 1993 UTC launched from the Plesetsk Missile And Space Complex (PKMTR). The debris from Iridium 33, an American commercial communications satellite, has been tracked extensively since its accidental collision with the defunct Russian satellite Cosmos 2251 in 2009. This event, occurring at high speed in low Earth orbit (LEO), generated thousands of pieces of space debris, significantly increasing the risk of further collisions. The Iridium 33 debris cloud has impacted space traffic management and orbital debris mitigation strategies, making it a subject of ongoing study in space situational awareness.

Loading next visibility...
Identifier
35837, 1993-036ATK
Orbit
LEO
Country
Flag of CISCIS
Related business
Manufacturer
Unknown
Mission
Spacecraft
Bus & Motor
Unknown
Mass
Unknown
Launch date (UTC)
1993-06-16 (33 years ago)
Launch vehicle
Unknown
Launch site
Plesetsk Missile And Space Complex (PKMTR)
Object type
Payload
Rocket body
Debris
Shape & HBR
Unknown shape, 0.1 m
Radar Cross Section
Medium (>0.1 m² and <1 m²)

Expand to show TLE details & history
Last TLE update: 3 days ago

TLE from 3 days ago
0 COSMOS 2251 DEB
1 35837U 93036ATK 26166.54325958  .00002694  00000-0  18793-2 0  9990
2 35837  73.7270 259.7406 0410365 152.9465 225.9938 13.65197593604971
Epoch: 2026-06-15T13:02Z
TLE epoch observation values (Epoch: 2026-06-15T13:02:17.627Z)
Latitude
15.01377°
Longitude
164.80689°
Altitude
1,235.717 km
Speed
7.131 km/s
True Right ascension
17h 36m 50s
True Declination
14° 56' 00"
Sunlit
Object was in full shadow at epoch
Visualization orbit readout
Latitude
Unknown
Longitude
Unknown
Altitude
Unknown
Speed
Unknown
Apparent Right ascension
Unknown
Apparent Declination
Unknown
Sunlit
N/A
Visualization observer readout
Local Sidereal Time
02:02:34
Azimuth
Unknown
Elevation
Unknown
Doppler factor
Unknown
Orbital elements
Apogee altitude
1,317.957 km
Perigee altitude
711.214 km
Semi-major axis
7,392.723 km
Eccentricity
0.04104
Inclination
73.727°
RAAN
259.7406°
Arg. of periapsis
152.9465°
True anomaly
222.7298°
Mean anomaly
225.9938°
Eccentric anomaly
224.3502°
Mean motion
3.41457 °/min
Orbital period
105.43 mins
BSTAR
0.0018793

Documentation

Showing up to 5 results
|